^^
Station Historical Data
 
Daily Summary for May 20, 2018 Units:  Metric    English   Both
« Previous Day
Next Day »
Daily Weekly Monthly Yearly Custom
  Current: High: Low: Average:
Temperature: 13.2 °C -17.8 °C 10.7 °C 11.1 °C
Dew Point: 13.2 °C -17.8 °C 9.9 °C 10.7 °C
Humidity: 100 % Humidity % 95 % 96 %
Wind Speed: 0 km/h 0 km/h 0 km/h 0 km/h
Wind Gust: 0 km/h 0 km/h - -
Wind:Calm - - NE
Pressure: 1009 hPa 0 hPa 1006.7 hPa -
Precipitation: 13.97 mm      
Historical Graphs
 
 
Tabular Data for May 20, 2018
Time Temperature Dew Point Pressure Wind Wind Speed Wind Gust Humidity Rainfall Rate (Hourly) solar Conditions
-17.8 °C -17.8 °C 0 hPa Calm     Humidity % 0 mm SoftwareType W/m2 Conditions
00:00 10.7 °C 9.9 °C 1009 hPa Calm     95 % 0 mm WeatherDisplay:10.37 W/m2 RA
00:05 10.7 °C 9.9 °C 1008.7 hPa Calm     95 % 0 mm WeatherDisplay:10.37 W/m2 RA
00:10 10.7 °C 9.9 °C 1008.7 hPa Calm     95 % 0.25 mm WeatherDisplay:10.37 W/m2 RA
00:15 10.7 °C 9.9 °C 1008.7 hPa Calm     95 % 0 mm WeatherDisplay:10.37 W/m2 RA
00:20 10.7 °C 9.9 °C 1008.4 hPa Calm     95 % 0 mm WeatherDisplay:10.37 W/m2 FEW
00:25 10.7 °C 9.9 °C 1008.4 hPa Calm     95 % 0 mm WeatherDisplay:10.37 W/m2 FEW
00:30 10.7 °C 10.1 °C 1008.4 hPa Calm     96 % 0 mm WeatherDisplay:10.37 W/m2 FEW
00:35 10.7 °C 9.9 °C 1008.4 hPa Calm     95 % 0 mm WeatherDisplay:10.37 W/m2 FEW
00:40 10.7 °C 10.1 °C 1008.4 hPa Calm     96 % 0 mm WeatherDisplay:10.37 W/m2 FEW
00:45 10.7 °C 10.1 °C 1008.4 hPa Calm     96 % 0 mm WeatherDisplay:10.37 W/m2 FEW
00:50 10.8 °C 10.2 °C 1008 hPa Calm     96 % 0 mm WeatherDisplay:10.37 W/m2 FEW
00:55 10.8 °C 10.2 °C 1008 hPa Calm     96 % 0 mm WeatherDisplay:10.37 W/m2 FEW
01:00 10.8 °C 10.2 °C 1008 hPa Calm     96 % 0 mm WeatherDisplay:10.37 W/m2 FEW
01:05 10.8 °C 10.2 °C 1008.4 hPa Calm   1.6 km/h 96 % 0 mm WeatherDisplay:10.37 W/m2 FEW
01:10 10.8 °C 10.2 °C 1008 hPa Calm   3.2 km/h 96 % 0 mm WeatherDisplay:10.37 W/m2 FEW
01:15 10.8 °C 10.2 °C 1008 hPa Calm     96 % 0 mm WeatherDisplay:10.37 W/m2 FEW
01:20 10.8 °C 10.2 °C 1008 hPa Calm     96 % 0 mm WeatherDisplay:10.37 W/m2 FEW
01:25 10.8 °C 10.2 °C 1008 hPa Calm     96 % 0.25 mm WeatherDisplay:10.37 W/m2 RA
01:30 10.8 °C 10.2 °C 1008 hPa Calm     96 % 0 mm WeatherDisplay:10.37 W/m2 RA
01:35 10.8 °C 10.2 °C 1008 hPa Calm     96 % 0 mm WeatherDisplay:10.37 W/m2 FEW
01:40 10.8 °C 10.2 °C 1007.7 hPa Calm     96 % 0.51 mm WeatherDisplay:10.37 W/m2 RA
01:45 10.8 °C 10.2 °C 1007.7 hPa Calm     96 % 0.25 mm WeatherDisplay:10.37 W/m2 RA
01:50 10.8 °C 10.2 °C 1007.7 hPa Calm     96 % 0 mm WeatherDisplay:10.37 W/m2 RA
01:55 10.9 °C 10.3 °C 1007.7 hPa Calm     96 % 0.25 mm WeatherDisplay:10.37 W/m2 RA
02:00 10.9 °C 10.3 °C 1007.7 hPa Calm     96 % 0.51 mm WeatherDisplay:10.37 W/m2 RA
02:05 10.9 °C 10.3 °C 1007.3 hPa Calm     96 % 0.25 mm WeatherDisplay:10.37 W/m2 RA
02:10 10.9 °C 10.3 °C 1007.3 hPa Calm     96 % 0 mm WeatherDisplay:10.37 W/m2 RA
02:15 10.9 °C 10.3 °C 1007.3 hPa Calm     96 % 0.25 mm WeatherDisplay:10.37 W/m2 RA
02:20 10.9 °C 10.3 °C 1007.3 hPa Calm     96 % 0 mm WeatherDisplay:10.37 W/m2 RA
02:25 10.9 °C 10.3 °C 1007.3 hPa Calm     96 % 0.51 mm WeatherDisplay:10.37 W/m2 RA
02:30 10.9 °C 10.3 °C 1007 hPa Calm     96 % 0.51 mm WeatherDisplay:10.37 W/m2 RA
02:35 10.9 °C 10.3 °C 1007 hPa Calm     96 % 0.51 mm WeatherDisplay:10.37 W/m2 RA
02:40 10.9 °C 10.3 °C 1007 hPa Calm     96 % 0.25 mm WeatherDisplay:10.37 W/m2 RA
02:45 11 °C 10.4 °C 1007 hPa Calm     96 % 0 mm WeatherDisplay:10.37 W/m2 RA
02:50 11 °C 10.4 °C 1007 hPa Calm     96 % 0 mm WeatherDisplay:10.37 W/m2 FEW
02:55 11 °C 10.4 °C 1007 hPa Calm     96 % 0 mm WeatherDisplay:10.37 W/m2 FEW
03:00 11.1 °C 10.4 °C 1007 hPa Calm     96 % 0.25 mm WeatherDisplay:10.37 W/m2 RA
03:05 11.1 °C 10.4 °C 1007 hPa Calm     96 % 0 mm WeatherDisplay:10.37 W/m2 RA
03:10 11.1 °C 10.4 °C 1007 hPa Calm     96 % 0.51 mm WeatherDisplay:10.37 W/m2 RA
03:15 11.1 °C 10.5 °C 1006.7 hPa Calm     96 % 0.76 mm WeatherDisplay:10.37 W/m2 RA
03:20 11.1 °C 10.5 °C 1007 hPa Calm     96 % 0.76 mm WeatherDisplay:10.37 W/m2 RA
03:25 11.1 °C 10.5 °C 1007 hPa Calm     96 % 0.51 mm WeatherDisplay:10.37 W/m2 RA
03:30 11.1 °C 10.5 °C 1007 hPa Calm     96 % 0.51 mm WeatherDisplay:10.37 W/m2 RA
03:35 11.1 °C 10.5 °C 1006.7 hPa Calm     96 % 0.51 mm WeatherDisplay:10.37 W/m2 RA
03:40 11.2 °C 10.6 °C 1006.7 hPa Calm     96 % 0.51 mm WeatherDisplay:10.37 W/m2 RA
03:45 11.2 °C 10.6 °C 1006.7 hPa Calm     96 % 0.51 mm WeatherDisplay:10.37 W/m2 RA
03:50 11.2 °C 10.6 °C 1006.7 hPa Calm     96 % 0.51 mm WeatherDisplay:10.37 W/m2 RA
03:55 11.2 °C 10.6 °C 1006.7 hPa Calm     96 % 0.51 mm WeatherDisplay:10.37 W/m2 RA
04:00 11.2 °C 10.6 °C 1007 hPa Calm     96 % 0.51 mm WeatherDisplay:10.37 W/m2 RA
04:05 11.2 °C 10.6 °C 1007 hPa Calm     96 % 0.51 mm WeatherDisplay:10.37 W/m2 RA
04:10 11.3 °C 10.7 °C 1006.7 hPa Calm     96 % 0.51 mm WeatherDisplay:10.37 W/m2 RA
04:15 11.3 °C 10.7 °C 1007 hPa Calm     96 % 0.51 mm WeatherDisplay:10.37 W/m2 RA
04:20 11.3 °C 10.7 °C 1007 hPa Calm     96 % 0.51 mm WeatherDisplay:10.37 W/m2 RA
04:25 11.3 °C 10.7 °C 1006.7 hPa Calm     96 % 0.25 mm WeatherDisplay:10.37 W/m2 RA
04:30 11.4 °C 10.8 °C 1006.7 hPa Calm     96 % 0 mm WeatherDisplay:10.37 W/m2 RA
04:35 11.4 °C 10.8 °C 1006.7 hPa Calm     96 % 0.25 mm WeatherDisplay:10.37 W/m2 RA
04:40 11.4 °C 10.8 °C 1006.7 hPa Calm     96 % 0.51 mm WeatherDisplay:10.37 W/m2 RA
04:45 11.5 °C 10.9 °C 1006.7 hPa Calm     96 % 0.51 mm WeatherDisplay:10.37 W/m2 RA
04:50 11.5 °C 10.9 °C 1006.7 hPa Calm     96 % 0 mm WeatherDisplay:10.37 W/m2 RA
04:55 11.6 °C 10.9 °C 1006.7 hPa Calm     96 % 0 mm WeatherDisplay:10.37 W/m2 FEW
05:00 11.6 °C 10.9 °C 1006.7 hPa Calm     96 % 0 mm WeatherDisplay:10.37 W/m2 FEW
05:05 11.6 °C 11 °C 1006.7 hPa Calm     96 % 0.25 mm WeatherDisplay:10.37 W/m2 RA
05:10 11.6 °C 11.2 °C 1006.7 hPa Calm     97 % 0 mm WeatherDisplay:10.37 W/m2 RA
05:15 11.6 °C 11.6 °C 1006.7 hPa Calm     100 % 0 mm WeatherDisplay:10.37 W/m2 FEW
05:20 11.6 °C 11.6 °C 1006.7 hPa Calm     100 % 0.25 mm WeatherDisplay:10.37 W/m2 RA
05:25 11.6 °C 11.6 °C 1007 hPa Calm     100 % 0.25 mm WeatherDisplay:10.37 W/m2 RA
05:30 11.6 °C 11.6 °C 1007 hPa Calm     100 % 0.25 mm WeatherDisplay:10.37 W/m2 RA
05:35 11.6 °C 11.6 °C 1007 hPa Calm     100 % 0.25 mm WeatherDisplay:10.37 W/m2 RA
05:40 11.6 °C 11.6 °C 1007 hPa Calm     100 % 0.25 mm WeatherDisplay:10.37 W/m2 RA
05:45 11.6 °C 11.6 °C 1007 hPa Calm     100 % 0.25 mm WeatherDisplay:10.37 W/m2 RA
05:50 11.7 °C 11.7 °C 1007 hPa Calm     100 % 0 mm WeatherDisplay:10.37 W/m2 RA
05:55 11.7 °C 11.7 °C 1007.3 hPa Calm     100 % 0.25 mm WeatherDisplay:10.37 W/m2 RA
06:00 11.7 °C 11.7 °C 1007.3 hPa Calm     100 % 0 mm WeatherDisplay:10.37 W/m2 RA
06:05 11.8 °C 11.8 °C 1007.3 hPa Calm     100 % 0 mm WeatherDisplay:10.37 W/m2 FEW
06:10 11.8 °C 11.8 °C 1007.3 hPa Calm     100 % 0 mm WeatherDisplay:10.37 W/m2 FEW
06:15 11.8 °C 11.8 °C 1007.3 hPa Calm     100 % 0 mm WeatherDisplay:10.37 W/m2 FEW
06:20 11.8 °C 11.8 °C 1007.3 hPa Calm     100 % 0 mm WeatherDisplay:10.37 W/m2 FEW
06:25 11.8 °C 11.8 °C 1007.3 hPa Calm     100 % 0 mm WeatherDisplay:10.37 W/m2 FEW
06:30 11.8 °C 11.8 °C 1007.7 hPa Calm     100 % 0 mm WeatherDisplay:10.37 W/m2 FEW
06:35 11.9 °C 11.9 °C 1007.7 hPa Calm     100 % 0 mm WeatherDisplay:10.37 W/m2 FEW
06:40 11.9 °C 11.9 °C 1007.7 hPa Calm     100 % 0 mm WeatherDisplay:10.37 W/m2 FEW
06:45 12 °C 12 °C 1007.7 hPa Calm     100 % 0 mm WeatherDisplay:10.37 W/m2 FEW
06:50 12.1 °C 12.1 °C 1007.7 hPa Calm     100 % 0 mm WeatherDisplay:10.37 W/m2 FEW
06:55 12.1 °C 12.1 °C 1007.7 hPa Calm     100 % 0 mm WeatherDisplay:10.37 W/m2 FEW
07:00 12.2 °C 12.2 °C 1007.7 hPa Calm     100 % 0 mm WeatherDisplay:10.37 W/m2 FEW
07:05 12.2 °C 12.2 °C 1008 hPa Calm     100 % 0 mm WeatherDisplay:10.37 W/m2 FEW
07:10 12.2 °C 12.2 °C 1008 hPa Calm     100 % 0 mm WeatherDisplay:10.37 W/m2 FEW
07:15 12.3 °C 12.3 °C 1008.4 hPa Calm     100 % 0 mm WeatherDisplay:10.37 W/m2 FEW
07:20 12.4 °C 12.4 °C 1008.4 hPa Calm     100 % 0 mm WeatherDisplay:10.37 W/m2 FEW
07:25 12.4 °C 12.4 °C 1008.4 hPa Calm     100 % 0 mm WeatherDisplay:10.37 W/m2 FEW
07:30 12.6 °C 12.6 °C 1008.4 hPa Calm   1.6 km/h 100 % 0 mm WeatherDisplay:10.37 W/m2 FEW
07:35 12.7 °C 12.7 °C 1008.7 hPa Calm     100 % 0 mm WeatherDisplay:10.37 W/m2 FEW
07:40 12.8 °C 12.8 °C 1008.7 hPa NE 1.6 km/h 4.8 km/h 100 % 0 mm WeatherDisplay:10.37 W/m2 FEW
07:45 12.9 °C 12.9 °C 1008.7 hPa Calm     100 % 0 mm WeatherDisplay:10.37 W/m2 FEW
07:50 13.1 °C 13.1 °C 1008.7 hPa Calm     100 % 0 mm WeatherDisplay:10.37 W/m2 FEW
07:55 13.2 °C 13.2 °C 1009 hPa Calm     100 % 0 mm WeatherDisplay:10.37 W/m2 FEW
Juneau County Weather
Compliments of Weather Underground - 2 mb